Regional Weather Roundup
Issued by NWS Wilmington, NC

Home | Current Version | Previous Version | Text Only | Print | Product List | Glossary On
Versions: 1 2 3 4 5 6 7 8 9 10 11 12 13 14 15 16 17 18 19 20 21 22 23 24 25 26 27 28 29 30 31 32 33 34 35 36 37 38 39 40 41 42 43 44 45 46 47 48 49 50
000
ASUS42 KILM 280713
RWRILM
RWRILM
REGIONAL HOURLY WEATHER ROUNDUP
NATIONAL WEATHER SERVICE WILMINGTON NC
300 AM EDT THU MAY 28 2015

NOTE: "FAIR" INDICATES FEW OR NO CLOUDS BELOW 12,000 FEET WITH NO
SIGNIFICANT WEATHER AND/OR OBSTRUCTIONS TO VISIBILITY.

...............WFO WILMINGTON COUNTY WARNING AREA...............

......COASTAL NC AND SC COUNTIES......

CITY           SKY/WX    TMP DP  RH WIND       PRES   REMARKS
WILMINGTON     PTCLDY    67  64  90 CALM      30.22F
N MYRTLE BEACH PTCLDY    74  66  76 S5        30.20F
MYRTLE BEACH   MOCLDY    73  66  78 SE6       30.22F

......INLAND NC AND SC COUNTIES.......

CITY           SKY/WX    TMP DP  RH WIND       PRES   REMARKS
LUMBERTON      CLOUDY    70  67  90 CALM      30.19F
ELIZABETHTOWN  PTCLDY    68  68 100 CALM      30.21F
WHITEVILLE     PTCLDY    67  65  94 CALM      30.20F
FLORENCE       CLOUDY    71  68  90 SW5       30.20F
DARLINGTON     CLEAR     68  64  88 S5        30.21F

....................REST OF NORTH CAROLINA......................

.........EASTERN NC.........

CITY           SKY/WX    TMP DP  RH WIND       PRES   REMARKS
CAPE HATTERAS  PTCLDY    71  61  70 SW5       30.24S
JACKSONVILLE   MOCLDY    66  61  82 CALM      30.22F
MOREHEAD CITY  CLEAR     65  62  90 CALM      30.23S
KENANSVILLE    CLOUDY    68  66  93 CALM      30.23F
NEW BERN       CLEAR     64  61  90 CALM      30.23F
ELIZABETH CITY PTCLDY    69  65  86 S7        30.21S

.........CENTRAL NC.........

CITY           SKY/WX    TMP DP  RH WIND       PRES   REMARKS
RALEIGH DURHAM PTCLDY    69  67  93 SW6       30.20F
ROCKY MOUNT    PTCLDY    69  68  96 S3        30.21F
ROANOKE RAPIDS NOT AVBL
FAYETTEVILLE   CLOUDY    70  67  90 SE6       30.19F
HOFFMAN        CLEAR     66  65  97 NW1       30.24F

.........WESTERN NC.........

CITY           SKY/WX    TMP DP  RH WIND       PRES   REMARKS
CHARLOTTE      CLOUDY    70  67  90 SE6       30.20F
GREENSBORO     PTCLDY    69  67  93 SW6       30.20S
HICKORY        NOT AVBL
BOONE          NOT AVBL
ASHEVILLE      NOT AVBL

.....................REST OF SOUTH CAROLINA.....................

.........EASTERN SC.........

CITY           SKY/WX    TMP DP  RH WIND       PRES   REMARKS
CHARLESTON     CLEAR     69  66  90 CALM      30.19F
BEAUFORT MCAS  CLEAR     70  68  93 CALM      30.18F
HILTON HEAD    CLEAR     70  68  94 CALM      30.20S

.........CENTRAL SC.........

CITY           SKY/WX    TMP DP  RH WIND       PRES   REMARKS
COLUMBIA       PTCLDY    70  66  87 CALM      30.18F
ORANGEBURG     PTCLDY    67  64  90 CALM      30.20F
SUMTER SHAW    PTCLDY    70  68  95 SE2       30.18F

.........WESTERN SC.........

CITY           SKY/WX    TMP DP  RH WIND       PRES   REMARKS
GREENVILLE     NOT AVBL
ROCK HILL      PTCLDY    69  68  96 S6        30.20F
ANDERSON       CLOUDY    67  65  93 CALM      30.19F
CLEMSON        NOT AVBL
GREENWOOD      MOCLDY    70  67  90 S3        30.20F


...................COASTAL AND OFFSHORE REPORTS..................

................LOCAL PIERS AND NC RESERVE................


STATION/POSITION TIME  SKY/WX   TEMP    WIND        PRES    VSBY
                                AIR SEA DIR/SP/G
                 (UTC)          (F)     (DEG/KT/KT) (MB)    (MI)
JOHNY MRCER PIER 0600            74 78  180/  9/ 10 1023.0F
NC RESRV MASNBRO NOT AVBL
OCEAN CREST PIER 0702            74 79  110/  7/  8 1022.3F
SPRINGMAID  PIER 0600            74 77  130/  7/  8 1023.2F


................COASTAL AND OFFSHORE BUOYS................


STATION/POSITION TIME  SKY/WX   TEMP    WIND        PRES    VSBY
                                AIR SEA DIR/SP/G
                 (UTC)          (F)     (DEG/KT/KT) (MB)    (MI)
DIMNDSHOAL 41025 0650            74 77  170/  8/ 10 1024.0F
WVE H/P(F/S)=  3/ 7 WND WVE H/P(F/S)=  2/ 4 SWL H/P/D(F/S/D)=  3/120/ 7

CAPE LOOKOUT     0700            73     150/  6/  6 1023.3F
ONSLOW BAY 41036 NOT AVBL
5 WRITEBCH 41038 0608            75 77  190/  8/ 10 1023.5S
MASONBORO  41110 0619               77                N/A
WVE H/P(F/S)=  3/ 7 WND WVE H/P(F/S)=  3/ 7

WILM HARBR 41108 0611               77                N/A
WVE H/P(F/S)=  3/ 6 WND WVE H/P(F/S)=  3/ 6

27WRITEBCH 41037 0600               76  210/  6/  8   N/A
FRYING PAN 41013 0650            76 75  150/  4/  6 1023.7F
WVE H/P(F/S)=  3/ 7 WND WVE H/P(F/S)=  2/ 4 SWL H/P/D(F/S/D)=  3/110/ 7

SUNST NRSH 41024 NOT AVBL
CAPRS NRSH 41029 0608            76     150/  4/  6 1022.5F
EDISTO     41004 0650            76 78  100/  8/ 10 1021.8F
WVE H/P(F/S)=  3/ 8 WND WVE H/P(F/S)=  2/ 4 SWL H/P/D(F/S/D)=  2/ 8



..........OFFSHORE BUOYS BEYOND 100 NM OFFSHORE...........
.....IN A TRIANGLE---HAT TO BERMUDA TO BAHAMAS TO HAT.....


STATION/POSITION TIME  SKY/WX   TEMP    WIND        PRES    VSBY
                                AIR SEA DIR/SP/G
                 (UTC)          (F)     (DEG/KT/KT) (MB)    (MI)
150E HAT   41001 NOT AVBL
W BERMUDA  41048 0650            73 74   70/ 12/ 16 1020.9F
WVE H/P(F/S)=  8/ 9 WND WVE H/P(F/S)=  3/ 5 SWL H/P/D(F/S/D)=  8/ 80/ 9

ATLANTIC S 41049 0650            75 78  110/ 10/ 12 1015.2F
WVE H/P(F/S)=  6/ 9 WND WVE H/P(F/S)=  2/ 4 SWL H/P/D(F/S/D)=  5/ 40/ 9

E BAHAMAS  41046 0650            76 81  350/  4/  6 1014.0F
WVE H/P(F/S)=  6/ 9 WND WVE H/P(F/S)=  2/ 4 SWL H/P/D(F/S/D)=  5/ 60/ 9

NE BAHAMAS 41047 0650            75 77   20/ 17/ 23 1016.3F
WVE H/P(F/S)=  8/ 8 WND WVE H/P(F/S)=  7/ 6 SWL H/P/D(F/S/D)=  5/ 70/ 8

120E CANVRL41010 0620            76 80   90/ 12/ 16 1020.9F

END



USA.gov is the U.S. government's official web portal to all federal, state and local government web resources and services.